Dewpoint
16 14 12 11 12 11 12 13 15 17 18 18 18 18 18 19 19 19 19 19 19 19 19 19 19 19 20 20 19 18 18 18 18 19 18 18 17 17 18 18 17 15 15 14 12 11 12 13 10 9 11 10 11 10 13 17 14 13 14 15 16 16 21
17 15 13 10 9 10 11 12 13 14 16 16 16 17 17 17 17 17 17 17 17 18 17 17 17 17 17 17 17 17 16 15 15 15 15 15 16 15 16 17 16 14 14 13 9 7 11 8 9 7 10 9 10 10 12 14 16 15 12 14 15 15 14
16 16 15 14 13 11 10 9 10 11 11 12 13 14 15 15 15 15 15 15 15 15 16 15 15 15 15 15 14 15 14 14 14 14 14 14 15 15 15 16 17 15 13 13 12 13 11 11 10 8 9 9 9 13 10 11 14 15 14 14 14 13 13
15 15 15 15 15 15 14 13 12 10 10 11 11 12 12 12 12 12 13 13 13 13 13 13 13 13 13 14 13 14 13 13 14 13 13 13 14 14 14 15 15 16 14 13 12 12 12 12 8 8 7 8 9 11 12 11 11 14 14 14 13 13 13
13 14 13 14 14 14 14 14 13 12 11 11 11 11 12 13 13 13 13 13 12 13 12 12 12 12 12 12 12 12 11 12 11 12 12 12 12 12 13 13 14 14 14 12 11 11 11 11 10 9 8 7 8 9 10 11 10 10 13 14 14 13 13
11 13 12 12 12 13 13 13 13 13 12 11 11 11 11 12 12 12 13 13 13 13 13 13 13 12 12 11 11 11 11 11 11 11 11 11 11 11 12 12 12 12 12 12 11 11 10 6 7 5 6 7 8 7 7 8 9 10 12 12 12 12 12
10 10 10 10 11 11 11 12 12 12 12 12 11 11 11 11 11 11 11 11 12 12 12 13 13 12 12 12 12 11 11 11 11 11 11 12 11 11 12 11 11 11 11 11 11 10 10 9 8 7 6 5 6 7 7 6 6 6 7 10 10 9 8
8 8 8 8 9 9 10 10 10 11 11 11 12 11 11 11 11 10 10 10 10 11 11 11 11 11 11 12 12 12 12 12 11 11 10 11 11 11 11 10 10 11 11 10 10 9 9 8 8 7 4 1 2 3 4 5 4 3 3 6 8 8 8
8 7 7 6 7 7 8 9 9 9 10 11 13 14 14 14 13 13 12 11 11 11 10 10 10 10 11 11 12 12 12 12 12 11 10 10 11 11 11 10 10 10 10 9 9 9 9 8 8 8 7 4 3 3 3 4 5 4 5 5 5 7 9
8 6 5 5 5 6 6 7 7 8 10 14 15 16 16 16 16 15 14 14 13 13 13 12 11 11 11 11 12 12 12 12 13 13 13 11 10 10 10 10 9 9 9 9 8 8 8 8 7 8 8 6 5 5 5 5 6 4 4 5 4 4 6
6 3 3 4 5 5 5 5 6 7 13 16 17 15 15 16 16 16 16 16 15 14 14 14 14 13 12 12 12 12 12 12 13 13 13 14 14 13 12 10 9 9 9 9 8 8 9 8 8 9 9 8 8 6 5 5 6 5 5 3 1 0 1
3 1 0 2 5 6 5 4 5 8 13 15 17 15 14 13 14 14 14 14 14 14 15 15 15 15 14 13 13 12 12 13 13 13 13 14 14 14 15 15 12 10 10 10 9 9 9 9 9 9 10 9 9 8 6 6 6 6 4 4 3 2 3
1 -1 -1 -0 3 4 3 -1 5 7 12 14 15 15 13 12 12 12 12 12 12 12 12 13 13 14 15 15 14 14 13 13 12 13 13 13 14 14 14 14 15 15 13 11 10 10 10 10 9 9 9 10 10 10 7 6 5 6 6 6 4 3 3
0 -2 -3 -1 0 0 -2 -3 4 5 11 13 14 14 14 11 9 9 8 8 9 9 10 11 12 12 12 13 14 15 15 14 13 13 12 12 12 12 13 13 14 14 15 15 13 11 10 11 11 10 11 11 12 10 7 6 5 6 6 6 5 7 7
-1 -3 -1 -1 -1 -2 -2 -3 3 5 8 11 12 13 11 8 6 5 6 6 6 7 8 9 9 10 11 12 12 13 15 15 15 14 13 12 12 12 12 12 12 12 12 13 13 13 12 13 13 12 12 12 13 11 10 9 8 8 7 7 8 7 4
-4 -3 -2 -2 -4 -4 -4 -3 2 4 5 9 10 12 7 5 3 2 2 2 2 3 4 4 6 7 8 10 11 12 13 13 13 13 13 13 12 12 12 12 12 13 15 13 13 13 13 13 13 15 13 12 12 11 11 10 9 9 8 6 4 3 3
-3 -2 -1 -1 -3 -5 -4 -3 0 2 3 5 9 8 5 2 0 -1 -2 -1 -1 1 2 3 4 4 5 7 7 8 8 9 9 8 8 9 11 12 12 11 12 13 15 18 18 18 19 19 19 19 19 19 18 14 11 9 7 6 6 5 3 3 2
-3 -3 -2 -2 -4 -5 -4 -3 -1 1 1 3 8 6 3 1 -1 -3 -3 -3 -2 -1 -0 1 3 4 4 4 4 5 6 6 7 6 6 7 7 7 8 10 11 11 11 13 14 15 15 16 17 18 18 19 19 17 14 9 6 6 5 4 3 2 2
-5 -5 -4 -5 -5 -1 -2 -4 -3 -1 -0 1 6 5 0 -1 -3 -4 -5 -4 -3 -2 -1 -1 1 2 2 3 4 4 5 6 5 4 4 5 6 6 6 7 9 10 10 10 9 9 10 10 12 13 13 15 16 16 15 12 9 7 5 3 3 2 2
-7 -8 -7 -5 -5 -6 -7 -7 -7 -4 -1 -0 1 2 -1 -4 -5 -5 -5 -4 -3 -3 -3 -2 -1 1 1 2 2 2 3 3 4 3 3 4 4 4 5 8 9 10 10 9 9 8 8 7 8 8 10 11 13 14 15 14 11 9 6 4 3 3 2
-9 -9 -8 -7 -7 -7 -7 -7 -7 -6 -2 -1 -1 -0 -1 -6 -6 -5 -4 -3 -2 -2 -3 -3 -3 -2 0 0 0 1 2 4 5 4 3 3 2 4 5 6 6 8 10 9 8 8 7 7 7 7 8 8 10 11 13 14 12 10 9 6 4 3 2
-10 -11 -10 -9 -9 -10 -9 -7 -4 -6 -3 -2 -1 -1 -2 -4 -6 -3 -2 -2 -3 -3 -4 -3 -3 -3 -1 -1 0 1 2 3 3 3 2 1 3 4 4 4 4 5 7 8 8 7 7 6 6 5 5 6 7 8 10 11 12 11 9 8 6 4 3
-13 -13 -12 -12 -11 -12 -11 -10 -9 -4 -5 -3 -2 -2 -3 -3 -3 -2 -2 -3 -3 -3 -3 -3 -4 -3 -1 -1 0 1 1 1 1 1 1 2 2 3 3 3 3 4 6 6 6 6 5 5 5 4 3 4 4 6 8 9 10 10 10 8 8 7 6
-14 -14 -14 -14 -12 -13 -13 -13 -13 -8 -5 -5 -3 -3 -3 -3 -3 -2 -3 -3 -3 -3 -3 -4 -4 -2 -1 -0 -0 -0 0 1 1 0 1 1 1 1 2 1 2 3 4 5 6 5 5 4 4 3 2 2 3 4 5 7 9 9 10 9 8 7 6
-14 -14 -13 -13 -12 -12 -12 -13 -12 -14 -10 -5 -4 -4 -4 -4 -4 -3 -3 -4 -3 -3 -3 -3 -2 -2 -2 -1 -1 -1 -0 -0 -0 -0 -1 -1 -0 0 -1 0 2 4 6 6 5 4 4 3 2 2 1 2 2 3 4 4 5 7 8 9 9 8 6
-14 -14 -14 -13 -13 -13 -12 -12 -14 -12 -13 -8 -7 -7 -6 -5 -4 -4 -4 -3 -3 -3 -3 -3 -3 -3 -2 -2 -2 -1 -1 -1 -1 -0 -1 -2 -1 -2 -1 -0 1 2 3 3 3 3 2 2 1 -1 1 1 1 1 1 1 2 2 3 5 5 5 6
-14 -14 -14 -13 -13 -13 -12 -12 -15 -13 -15 -13 -11 -12 -9 -7 -6 -5 -4 -4 -5 -5 -5 -4 -4 -3 -3 -3 -2 -2 -2 -2 -2 -3 -4 -4 -3 -2 1 2 2 2 3 3 3 3 2 1 0 1 0 -0 0 -0 0 1 0 0 0 1 3 3 2
-15 -14 -13 -13 -12 -11 -11 -12 -14 -14 -12 -11 -10 -9 -7 -7 -6 -7 -7 -6 -6 -6 -4 -4 -4 -4 -6 -7 -8 -9 -12 -11 -10 -7 -5 -6 -5 -4 -2 -0 1 3 3 4 4 4 2 -0 -0 -1 -1 -0 -1 -1 -1 -1 -1 -1 -1 -0 -0 -0 -1
-13 -11 -11 -11 -11 -11 -11 -11 -12 -12 -7 -5 -6 -7 -8 -8 -7 -6 -6 -5 -4 -5 -5 -5 -7 -10 -9 -14 -10 -11 -14 -13 -13 -11 -9 -10 -9 -7 -5 -3 -2 -1 2 3 3 2 1 -0 -0 -1 -1 -1 -2 -2 -1 -1 -1 -1 -1 -2 -1 -2 -3
-8 -7 -7 -9 -9 -10 -9 -10 -9 -6 -6 -6 -6 -6 -6 -6 -5 -5 -6 -5 -5 -6 -7 -8 -10 -11 -13 -12 -15 -14 -13 -13 -14 -13 -12 -12 -6 -7 -9 -8 -5 -4 -1 0 2 2 1 -0 -0 -1 -1 -2 -2 -2 -2 -1 -0 -2 -1 -3 -3 -3 -3
-7 -7 -7 -7 -9 -8 -7 -7 -7 -7 -7 -7 -7 -6 -6 -6 -6 -6 -6 -6 -7 -7 -8 -10 -12 -12 -13 -13 -14 -15 -14 -13 -14 -13 -13 -12 -12 -14 -11 -8 -9 -8 -5 -3 -2 -1 0 0 -0 -1 -1 -2 -2 -3 -3 -2 -1 -1 -2 -3 -3 -4 -5
-8 -8 -8 -8 -8 -8 -9 -8 -8 -8 -8 -8 -7 -8 -7 -7 -7 -7 -7 -7 -6 -8 -10 -15 -14 -14 -14 -15 -15 -14 -13 -13 -15 -14 -14 -15 -14 -12 -12 -11 -10 -8 -9 -7 -6 -5 -4 -3 -2 -1 -2 -2 -2 -3 -3 -3 -3 -2 -3 -3 -3 -4 -5
-10 -10 -9 -9 -9 -9 -9 -9 -9 -9 -8 -8 -8 -8 -8 -8 -8 -8 -8 -7 -9 -14 -14 -17 -16 -16 -15 -15 -15 -15 -15 -14 -16 -15 -14 -16 -15 -12 -13 -13 -10 -7 -10 -8 -8 -8 -8 -6 -5 -4 -4 -3 -3 -4 -4 -4 -4 -3 -3 -4 -4 -4 -5
-12 -12 -11 -11 -10 -10 -10 -10 -10 -9 -9 -9 -9 -9 -9 -9 -9 -8 -8 -9 -13 -17 -17 -17 -17 -16 -16 -16 -15 -15 -14 -14 -14 -15 -14 -13 -14 -13 -14 -12 -12 -13 -10 -10 -9 -10 -9 -8 -8 -7 -7 -7 -6 -5 -5 -5 -4 -4 -4 -5 -5 -5 -5
-17 -14 -13 -13 -12 -12 -11 -11 -10 -10 -10 -10 -10 -10 -10 -9 -12 -16 -19 -19 -21 -18 -19 -18 -16 -17 -16 -16 -16 -15 -14 -14 -15 -15 -14 -13 -13 -14 -14 -14 -13 -12 -11 -10 -11 -11 -11 -9 -8 -9 -8 -7 -7 -6 -6 -6 -5 -5 -4 -5 -5 -5 -6
-18 -18 -15 -14 -13 -12 -12 -12 -11 -11 -11 -11 -11 -11 -10 -14 -18 -20 -21 -20 -19 -20 -17 -17 -17 -16 -16 -17 -16 -16 -15 -16 -15 -15 -14 -15 -14 -12 -12 -13 -12 -11 -12 -10 -9 -8 -9 -8 -10 -9 -9 -9 -7 -7 -7 -6 -6 -6 -6 -5 -6 -6 -6